Find STARLINK-37572

NORAD ID: 799500899 Int'l Des: 2026-127F Constellation: starlink operational

現在のビュー

3D地球を読み込み中...

STARLINK-37572について

説明を読み込み中...

次回通過

Passes for default location (London). Set your location on the main map for personalized predictions.

高度履歴

Loading altitude history...

軌道要素

1 99999C 2026127F 26159.91923610 .00845970 00000-0 906090-4 0 1598
2 99999 53.1617 304.8605 0008698 292.3711 61.6393 16.08838255 17
Epoch: Jun 8, 2026 • Age: 3 hours

現在のステータス

高度 261.8 km
速度 7.75 km/s
衛星直下点 -47.73°S, 87.09°W
打ち上げ日 Jun 4, 2026
運用期間 4 days
タイプ internet

Most Searched